Вернуться в каталог

FREGAT DEB

LostUNKNOWN
NORAD 46254·DEBRIS·🇷🇺 Russia

Запущен Jul 18, 2011 с Baikonur Cosmodrome

Loading…

Ближайшие Пролёты (ближайшие 24 часа)

TLE

УстаревшееSource: Space-Track

Эпоха: Aug 29, 2020, 05:11 UTC

1 46254U 11037KQ  20242.21652797 -.00002874  00000-0 -50742-1 0  9994
2 46254  52.0525 251.8545 1772278 140.4959 233.9458  9.74244619   862

Отслеживайте FREGAT DEB в реальном времени с AllMySat

Download on the App Store